Location: Antioch Baptist Church
(32.6696°N, 85.7327°W)
Time: 19:58:05
(UTC+00:00)

Cosmos 2082 Rocket - Pass Details

Date: 14 July 2020
Orbit: 834 x 853 km, 71.0° (Epoch: 13 August)

Event Time Altitude Azimuth Distance (km) Brightness Sun altitude
Exits shadow 07:28:19 54° 83° (E) 1,033 2.7 -30.8°
Drops below altitude 10° 07:33:19 10° 30° (NNE) 2,483 5.5 -30.3°
Sets 07:35:49 0° 26° (NNE) 3,421 6.6 -30.0°
